Dryden, TX

11:00 AM CST on February 23, 2017 (GMT -0600)
Dryden

Weather History for K6R6 - April, 2014

Change the Weather History Date:

Wednesday, April 30, 2014

  Actual Average (KFST) Record (KFST)
Temperature  
Mean Temperature 69 °F -  
Max Temperature 78 °F 85 °F 100 °F (2002)
Min Temperature 60 °F 56 °F 43 °F (2005)
Cooling Degree Days 4    
Growing Degree Days 19 (Base 50)    
Moisture  
Dew Point 23 °F    
Average Humidity 18    
Maximum Humidity 25    
Minimum Humidity 12    
Precipitation  
Precipitation 0.00 in - - ()
Sea Level Pressure  
Sea Level Pressure 30.05 in    
Wind  
Wind Speed 9 mph (NNE)    
Max Wind Speed 15 mph    
Max Gust Speed 26 mph    
Averages and records for this station are not official NWS values.
T = Trace of Precipitation, MM = Missing Value Source: NWS Daily Summary

Daily Weather History Graph

Daily Weather History Graph

Search for Another Location

Airport or City:

Trip Planner

Search our weather history database for the weather conditions in past years. The results will help you decide how hot, cold, wet, or windy it might be!

Date:

Astronomy

Apr. 30, 2014 Rise Set
Actual Time 7:06 AM CDT 8:25 PM CDT
Civil Twilight 6:41 AM CDT 8:51 PM CDT
Nautical Twilight 6:11 AM CDT 9:21 PM CDT
Astronomical Twilight 5:40 AM CDT 9:52 PM CDT
Moon 8:11 AM CDT (4/30) 10:02 PM CDT (4/30)
Length of Visible Light 14h 09m
Length of Day
13h 18m
New Moon, 2% of the Moon is Illuminated
Apr 30
New Moon
May 6
First Quarter
May 14
Full
May 21
Last Quarter
May 28
New

Hourly Weather History & Observations

Time (CDT) Temp. Dew Point Humidity Pressure Visibility Wind Dir Wind Speed Gust Speed Precip Events Conditions
12:53 AM 66.0 °F 19.0 °F 17% 30.00 in - NE 8.1 mph - N/A   Unknown
1:53 AM 63.0 °F 21.0 °F 20% 30.02 in - NNE 8.1 mph - N/A   Unknown
2:53 AM 61.0 °F 21.9 °F 22% 30.02 in - NNE 8.1 mph - N/A   Unknown
3:53 AM 60.1 °F 23.0 °F 24% 30.04 in - North 5.8 mph - N/A   Unknown
4:53 AM 60.1 °F 24.1 °F 25% 30.05 in - North 4.6 mph - N/A   Unknown
5:53 AM 60.1 °F 24.1 °F 25% 30.07 in - North 8.1 mph - N/A   Unknown
6:53 AM 61.0 °F 25.0 °F 25% 30.09 in - North 8.1 mph - N/A   Unknown
7:53 AM 62.1 °F 25.0 °F 24% 30.12 in - North 6.9 mph - N/A   Unknown
8:53 AM 63.0 °F 25.0 °F 24% 30.15 in - North 12.7 mph - N/A   Unknown
10:53 AM 68.0 °F 23.0 °F 18% 30.17 in - NNE 10.4 mph 26.5 mph N/A   Unknown
11:53 AM 70.0 °F 24.1 °F 18% 30.16 in - North 12.7 mph 19.6 mph N/A   Unknown
12:53 PM 73.0 °F 24.1 °F 16% 30.12 in - NNE 13.8 mph 21.9 mph N/A   Unknown
1:53 PM 73.0 °F 23.0 °F 15% 30.09 in - NE 10.4 mph - N/A   Unknown
2:53 PM 75.9 °F 21.9 °F 13% 30.06 in - NE 11.5 mph 18.4 mph N/A   Unknown
3:53 PM 75.0 °F 21.9 °F 14% 30.02 in - Variable 6.9 mph - N/A   Unknown
4:53 PM 78.1 °F 21.9 °F 12% 29.99 in - North 15.0 mph 18.4 mph N/A   Unknown
5:53 PM 78.1 °F 21.9 °F 12% 29.98 in - ENE 11.5 mph - N/A   Unknown
6:53 PM 77.0 °F 21.9 °F 13% 29.97 in - NE 9.2 mph - N/A   Unknown
7:53 PM 73.9 °F 21.9 °F 14% 29.96 in - ENE 11.5 mph - N/A   Unknown
8:53 PM 71.1 °F 23.0 °F 16% 30.00 in - NE 9.2 mph - N/A   Unknown
9:53 PM 70.0 °F 23.0 °F 17% 30.03 in - NE 8.1 mph - N/A   Unknown
10:53 PM 68.0 °F 23.0 °F 18% 30.06 in - NE 9.2 mph - N/A   Unknown
11:53 PM 68.0 °F 24.1 °F 19% 30.06 in - NE 9.2 mph - N/A   Unknown